Retour au catalogue

SL-12 R/B(2)

ActifGEO
NORAD 23656·ROCKET BODY·🇷🇺 Russia

Lancé Aug 30, 1995 depuis Baikonur Cosmodrome

Loading…

TLE

FraisSource: Space-Track

Époque: Sep 14, 2026, 14:13 UTC

1 23656U 95045D   26257.59253426 -.00000207  00000-0  00000+0 0  9992
2 23656  14.3957 352.3348 0017133  58.3437 310.4479  1.00189443113560

Suivez SL-12 R/B(2) en temps réel avec AllMySat

Download on the App Store